Location: Lac Lasalle
(46.0398°N, 74.1576°W)
Time: 20:41:31
(UTC-04:00)

N. Korean satellite - Visible Passes

Search period start: 20 October 2019 00:00
Search period end: 30 October 2019 00:00
Orbit: 455 x 508 km, 97.2° (Epoch: 20 October)

Date Brightness Start Highest point End Pass type
(mag) Time Alt. Az. Time Alt. Az. Time Alt. Az.
21 Oct 7.6 06:40:09 10° NNE 06:43:42 51° E 06:47:16 10° S visible
21 Oct 9.7 18:52:14 10° SW 18:54:47 19° W 18:57:23 10° NW visible
22 Oct 9.2 06:15:13 10° NE 06:18:18 26° E 06:21:24 10° SSE visible
22 Oct 8.2 18:26:07 10° SSW 18:29:20 39° W 18:32:38 10° NNW visible
23 Oct 10.2 05:50:53 10° ENE 05:52:49 14° E 05:54:44 10° ESE visible
24 Oct 10.2 19:10:53 10° WSW 19:12:23 12° W 19:13:54 10° WNW visible
25 Oct 8.1 06:32:20 10° NNE 06:35:50 41° E 06:39:21 10° S visible
25 Oct 9.3 18:44:01 10° SSW 18:46:52 24° W 18:49:45 10° NW visible
26 Oct 9.5 06:07:32 10° NE 06:10:24 21° E 06:13:17 10° SE visible
26 Oct 7.6 18:18:04 10° S 18:21:25 49° W 18:24:51 10° NNW visible
27 Oct 10.4 05:43:39 10° ENE 05:44:53 11° E 05:46:06 10° ESE visible
28 Oct 7.0 06:49:37 10° NNE 06:53:19 70° ESE 06:57:00 10° S visible
28 Oct 10.0 19:02:17 10° SW 19:04:24 15° W 19:06:33 10° NW visible
29 Oct 8.6 06:24:32 10° NNE 06:27:56 34° E 06:31:20 10° SSE visible
29 Oct 8.8 18:35:49 10° SSW 18:38:54 30° W 18:42:02 10° NNW visible
